GW1852 Weather Reports


Display with metric or nautical units.
time (UTC)temp
F
wind
direction
speed
MPH
gust
MPH
rain 1hr
in
rain 24hr
in
rain mn
in
humidity
%
barometer
mb
20260831043056 59 301 14.0 26.0 0.00 0.06 0.06 51 1013.5
20260831041554 59 300 16.0 24.0 0.00 0.06 0.06 51 1013.5
20260831040053 59 291 16.0 24.0 0.00 0.06 0.06 51 1013.4
20260831034602 60 304 15.0 22.0 0.00 0.09 0.06 49 1013.3
20260831033058 60 287 15.0 23.0 0.00 0.09 0.06 48 1013.3
20260831031555 60 293 14.0 23.0 0.00 0.09 0.06 48 1013.1
20260831030054 60 302 13.0 21.0 0.00 0.09 0.06 48 1012.9
20260831024557 61 297 18.0 26.0 0.00 0.09 0.06 45 1012.6
20260831023048 61 307 15.0 22.0 0.00 0.09 0.06 48 1012.4
20260831021550 61 302 16.0 24.0 0.00 0.09 0.06 46 1012.3
20260831020049 61 311 15.0 26.0 0.00 0.09 0.06 48 1012.2
20260831014549 61 298 16.0 27.0 0.00 0.09 0.06 48 1012.1
20260831013048 62 295 20.0 31.0 0.00 0.09 0.06 45 1012.0
20260831011552 63 306 13.0 32.0 0.00 0.09 0.06 46 1012.2
20260831010049 63 321 19.0 30.0 0.00 0.09 0.06 45 1012.2
20260831004544 63 323 0.0 0.0 0.00 0.09 0.06 43 1012.1
20260831003043 64 302 0.0 0.0 0.00 0.09 0.06 42 1012.1
20260831001542 64 295 0.0 0.0 0.00 0.09 0.06 41 1012.2
20260831000041 64 302 0.0 0.0 0.00 0.09 0.06 42 1012.1
20260830234545 65 282 0.0 0.0 0.00 0.09 0.06 41 1012.0
20260830233040 64 291 0.0 0.0 0.00 0.09 0.06 43 1012.0
20260830231539 64 297 0.0 0.0 0.00 0.09 0.06 42 1011.9
20260830230038 65 302 0.0 0.0 0.00 0.09 0.06 43 1011.8
20260830224536 65 293 0.0 0.0 0.00 0.48 0.06 41 1011.9
20260830223036 64 293 0.0 0.0 0.00 0.48 0.06 42 1012.0
20260830221537 64 320 0.0 0.0 0.00 0.48 0.06 44 1012.1
20260830220034 62 276 0.0 0.0 0.00 0.48 0.06 49 1012.3
20260830214532 62 274 0.0 0.0 0.00 0.55 0.06 49 1012.5
20260830213032 62 278 0.0 0.0 0.00 0.55 0.06 49 1012.5
20260830211531 62 293 0.0 0.0 0.00 0.55 0.06 47 1012.6
20260830210033 64 280 0.0 0.0 0.00 0.55 0.06 48 1012.6
20260830204530 63 259 0.0 0.0 0.00 0.55 0.06 49 1012.7
20260830203028 62 291 0.0 0.0 0.00 0.55 0.06 48 1012.6
20260830201526 61 307 0.0 0.0 0.00 0.55 0.06 48 1012.7
20260830200025 60 293 0.0 0.0 0.00 0.55 0.06 51 1012.8
20260830194525 63 297 0.0 0.0 0.00 0.55 0.06 45 1012.5
20260830193024 64 291 0.0 0.0 0.00 0.55 0.06 40 1012.3
20260830191522 65 335 0.0 0.0 0.00 0.55 0.06 40 1012.2
20260830190026 63 295 0.0 0.0 0.00 0.55 0.06 42 1012.3
20260830184522 64 286 0.0 0.0 0.00 0.55 0.06 41 1012.2
20260830183032 65 302 0.0 0.0 0.00 0.55 0.06 38 1012.3
20260830181521 65 281 0.0 0.0 0.00 0.55 0.06 38 1012.4
20260830180030 64 248 0.0 0.0 0.00 0.55 0.06 45 1012.6
20260830174520 64 260 0.0 0.0 0.00 0.55 0.06 46 1012.4
20260830173016 63 266 0.0 0.0 0.00 0.55 0.06 41 1012.4
20260830171516 63 279 0.0 0.0 0.00 0.55 0.06 43 1012.6
20260830170008 62 276 0.0 0.0 0.00 0.55 0.06 46 1012.7
20260830164504 61 283 0.0 0.0 0.00 0.55 0.06 48 1012.8
20260830163003 60 278 0.0 0.0 0.00 0.55 0.06 56 1012.9
20260830161558 59 279 0.0 0.0 0.00 0.55 0.06 61 1012.8
20260830160105 59 291 0.0 2.0 0.00 0.55 0.06 64 1013.0
20260830154556 58 250 0.0 0.0 0.00 0.55 0.06 65 1013.1
20260830153055 57 245 0.0 3.0 0.00 0.55 0.06 68 1013.1
20260830151553 57 253 0.0 3.0 0.00 0.55 0.06 68 1013.2
20260830150051 56 250 0.0 3.0 0.00 0.55 0.06 78 1013.4
20260830144601 56 263 0.0 0.0 0.00 0.55 0.06 81 1013.2
20260830143053 55 281 0.0 1.0 0.00 0.55 0.06 86 1013.1
20260830141549 54 287 0.0 1.0 0.00 0.55 0.06 84 1013.1
20260830140053 54 332 0.0 1.0 0.00 0.55 0.06 79 1013.1
20260830134559 54 283 0.0 0.0 0.00 0.55 0.06 84 1013.3
20260830133047 54 283 0.0 1.0 0.00 0.55 0.06 84 1013.2
20260830131552 54 283 0.0 1.0 0.00 0.55 0.06 83 1013.3
20260830130059 55 283 0.0 1.0 0.00 0.55 0.06 81 1013.1
20260830124545 55 271 0.0 2.0 0.00 0.55 0.06 82 1013.1
20260830123047 56 288 0.0 1.0 0.00 0.55 0.06 77 1012.7
20260830121552 57 248 0.0 1.0 0.00 0.55 0.06 74 1012.6
20260830120036 57 285 0.0 4.0 0.00 0.55 0.06 73 1012.5
20260830114537 57 244 0.0 1.0 0.00 0.55 0.06 79 1011.9
20260830113034 57 283 0.0 1.0 0.00 0.55 0.06 79 1012.7
20260830111541 57 272 0.0 5.0 0.00 0.55 0.06 82 1013.0
20260830110032 57 285 0.0 1.0 0.00 0.55 0.06 78 1013.0
20260830104532 56 293 0.0 1.0 0.00 0.55 0.06 82 1012.8
20260830103038 57 281 0.0 0.0 0.00 0.55 0.06 81 1012.5
20260830101529 58 293 0.0 1.0 0.00 0.55 0.06 82 1012.4
20260830100032 58 145 0.0 0.0 0.00 0.55 0.06 83 1012.1
20260830094534 58 240 0.0 1.0 0.00 0.55 0.06 81 1012.1
20260830093025 58 158 0.0 1.0 0.00 0.55 0.06 83 1012.2
20260830091532 57 269 0.0 0.0 0.01 0.55 0.06 81 1012.4
20260830090023 57 290 0.0 0.0 0.03 0.55 0.06 82 1012.6
20260830084522 56 330 0.0 1.0 0.04 0.55 0.06 84 1012.6
20260830083020 57 294 0.0 1.0 0.05 0.55 0.06 86 1013.0
20260830081519 57 286 0.0 0.0 0.04 0.54 0.05 86 1013.6
20260830080018 57 274 0.0 0.0 0.02 0.52 0.03 87 1013.8
20260830074515 57 283 0.0 0.0 0.01 0.51 0.02 87 1014.0
20260830073015 58 289 0.0 0.0 0.00 0.50 0.01 87 1013.6
20260830071509 59 278 0.0 0.0 0.01 0.50 0.01 83 1013.0
20260830070005 59 280 0.0 5.0 0.01 0.50 0.01 85 1012.7
20260830064511 59 274 0.0 1.0 0.01 0.50 0.01 82 1012.3
20260830063004 59 271 0.0 0.0 0.01 0.50 0.01 82 1012.3
20260830061502 60 240 0.0 0.0 0.00 0.49 0.00 80 1012.4
20260830060106 59 225 0.0 0.0 0.00 0.49 0.00 86 1012.2
20260830054603 59 161 0.0 0.0 0.00 0.49 0.49 87 1012.1
20260830053057 59 159 0.0 0.0 0.00 0.49 0.49 86 1012.0
20260830051610 59 161 0.0 0.0 0.00 0.49 0.49 86 1011.9
20260830050056 59 164 0.0 1.0 0.00 0.49 0.49 86 1012.0
20260830044603 60 146 0.0 0.0 0.00 0.49 0.49 82 1012.2